Temp
10 11 12 13 11 11 10 11 11 11 10 10 9 9 8 8 8 8 8 7 6 6 5 6 6 6 6 6 6 6 6 6 5 5 5 6 6 6 6 7 7 7 8 8
7 13 12 13 11 11 12 12 12 11 12 11 10 8 8 8 8 8 8 7 7 6 6 5 6 6 6 6 6 6 6 5 5 5 5 5 5 5 5 5 5 5 6 6
8 10 11 11 12 12 12 12 12 12 12 10 10 10 9 7 8 8 8 8 7 5 5 5 6 6 5 5 5 5 5 5 5 5 5 4 4 4 4 4 4 4 4 5
7 9 9 12 12 12 12 12 11 11 11 10 10 7 7 8 7 7 7 7 6 5 6 6 6 6 5 5 5 5 5 5 4 4 4 4 4 4 4 3 3 3 4 4
7 6 10 12 12 11 11 11 11 11 10 9 7 8 8 7 6 6 6 6 6 6 5 6 5 5 5 5 4 4 4 4 4 4 3 3 3 3 3 3 3 3 3 3
8 9 11 12 11 11 12 10 10 10 9 9 9 8 7 6 6 6 6 6 6 6 5 5 5 4 4 4 4 4 4 3 3 3 3 3 3 3 3 3 2 2 2 2
9 8 9 11 11 11 12 11 9 9 9 8 8 7 6 6 7 7 6 6 6 6 5 5 5 4 3 3 2 3 3 3 3 3 2 2 2 2 2 2 2 2 2 2
8 9 9 9 10 11 10 9 9 9 9 8 7 6 6 6 6 6 5 6 6 5 5 5 5 4 3 3 3 3 3 3 2 2 2 2 2 2 2 1 1 1 1 1
9 9 10 8 11 9 7 8 9 8 8 7 6 5 6 5 5 4 5 4 5 4 4 4 4 3 2 3 2 2 2 2 2 2 2 2 1 1 1 1 0 -0 -0 -1
10 10 8 9 9 8 7 8 7 7 6 5 6 5 6 4 3 3 3 3 4 3 2 2 3 2 2 2 1 1 1 0 0 0 1 1 1 1 0 -0 -0 -1 -1 -0
7 8 8 8 7 7 6 5 5 5 5 5 4 5 4 3 2 2 2 3 2 2 1 1 2 1 2 1 1 0 -0 -0 -0 -1 -1 -0 1 0 -0 -1 -1 -1 -2 -1
11 9 9 9 8 6 5 5 4 4 4 4 4 3 3 2 2 2 2 2 1 1 1 1 1 0 0 -1 -1 -1 -2 -2 -2 -1 -2 -1 -1 -0 -0 -1 -2 -2 -2 -1
10 7 7 7 6 5 5 4 3 3 3 3 3 3 3 1 1 1 0 -0 -1 -1 -1 -1 -2 -2 -2 -2 -3 -3 -3 -3 -3 -2 -2 -2 -2 -1 -3 -1 -3 -2 -2 -2
6 5 6 5 5 4 4 3 4 3 3 2 2 1 1 -0 -1 -2 -2 -2 -3 -3 -3 -3 -3 -3 -3 -3 -4 -4 -4 -4 -3 -3 -3 -3 -2 -2 -2 -2 -2 -3 -3 -3
4 5 6 3 2 2 2 2 1 1 1 -0 -0 -1 -2 -2 -3 -3 -3 -4 -4 -4 -4 -4 -4 -4 -4 -4 -4 -5 -5 -5 -4 -4 -3 -3 -3 -3 -2 -2 -2 -3 -4 -4
3 2 2 3 1 1 1 1 0 -0 -1 -1 -2 -2 -3 -3 -3 -4 -4 -5 -5 -6 -5 -5 -5 -5 -5 -5 -5 -5 -6 -5 -4 -4 -4 -3 -3 -3 -3 -3 -3 -4 -4 -4
1 1 1 -0 1 1 1 0 -0 -1 -2 -2 -3 -3 -4 -4 -5 -5 -6 -6 -6 -6 -5 -5 -6 -5 -5 -6 -6 -6 -6 -5 -4 -5 -4 -4 -4 -3 -3 -4 -4 -4 -4 -4
3 3 2 1 -0 -1 -1 -1 -1 -2 -3 -3 -4 -4 -5 -6 -7 -6 -6 -6 -6 -6 -6 -6 -6 -5 -6 -6 -6 -6 -5 -5 -5 -5 -5 -4 -4 -4 -4 -4 -4 -4 -4 -4
2 1 0 0 0 -1 -2 -3 -3 -3 -4 -4 -5 -5 -6 -6 -7 -7 -7 -7 -7 -7 -7 -6 -6 -6 -6 -6 -6 -5 -5 -5 -5 -5 -5 -5 -5 -4 -4 -4 -4 -4 -4 -4
-1 -1 -1 -1 -1 -1 -3 -3 -3 -4 -4 -5 -5 -6 -6 -7 -7 -7 -7 -7 -7 -7 -7 -7 -6 -7 -7 -6 -6 -5 -5 -5 -5 -5 -5 -5 -5 -4 -4 -4 -4 -5 -5 -5
-3 -2 -2 -2 -2 -2 -3 -3 -4 -5 -5 -6 -6 -6 -7 -7 -7 -7 -8 -8 -7 -8 -6 -6 -7 -7 -6 -6 -5 -5 -6 -6 -6 -6 -6 -5 -5 -5 -5 -5 -6 -6 -6 -6
-4 -4 -4 -3 -3 -4 -4 -4 -5 -5 -6 -6 -7 -7 -7 -7 -7 -7 -7 -8 -8 -7 -7 -7 -7 -7 -5 -5 -5 -6 -7 -7 -7 -7 -6 -6 -6 -6 -6 -6 -6 -6 -7 -7
-4 -4 -4 -4 -4 -4 -5 -5 -6 -6 -6 -7 -7 -7 -7 -7 -7 -8 -8 -8 -8 -8 -7 -7 -7 -6 -6 -6 -6 -6 -6 -7 -7 -7 -7 -7 -7 -8 -7 -7 -7 -7 -8 -7
-3 -4 -4 -5 -5 -6 -7 -6 -7 -6 -6 -7 -7 -7 -7 -7 -7 -7 -8 -8 -8 -8 -8 -8 -8 -7 -6 -7 -7 -7 -7 -7 -8 -8 -8 -8 -9 -9 -9 -9 -9 -9 -8 -8
-3 -4 -5 -6 -7 -7 -6 -6 -6 -6 -6 -7 -7 -7 -7 -8 -8 -8 -8 -8 -8 -9 -8 -9 -9 -9 -8 -8 -7 -7 -8 -8 -8 -8 -8 -9 -9 -10 -10 -10 -10 -9 -9 -8
-5 -5 -5 -5 -5 -5 -6 -7 -7 -7 -7 -7 -7 -7 -8 -8 -8 -8 -8 -8 -9 -9 -9 -9 -9 -10 -9 -8 -8 -8 -8 -9 -9 -9 -9 -9 -10 -10 -10 -10 -9 -9 -9 -9
-4 -4 -5 -6 -6 -6 -6 -7 -7 -7 -7 -8 -8 -8 -8 -8 -8 -8 -9 -9 -9 -10 -10 -10 -10 -10 -10 -10 -9 -9 -9 -9 -9 -9 -9 -10 -9 -9 -9 -9 -9 -9 -9 -8
Height
790 786 777 772 776 772 772 765 772 772 774 772 773 774 775 776 776 775 775 776 776 775 774 773 773 772 771 769 767 764 762 760 759 759 759 757 756 753 749 746 744 743 741 738
806 775 776 771 774 771 766 765 767 769 765 766 769 774 775 777 777 778 778 777 776 776 776 774 773 772 770 768 765 764 764 764 762 761 759 756 754 753 750 745 745 744 743 740
803 787 780 783 768 768 765 766 765 766 764 769 772 772 774 776 775 775 775 776 776 776 775 774 773 770 769 767 767 765 764 764 762 758 755 755 753 750 749 750 748 744 741 738
813 793 802 769 766 766 766 765 765 766 767 768 770 776 776 774 777 777 777 776 776 776 775 774 773 772 771 769 766 764 764 763 763 762 760 756 752 750 747 743 743 741 739 736
810 815 781 767 768 769 768 765 763 765 769 772 776 777 777 775 775 776 776 777 777 777 775 774 774 773 772 770 770 768 767 767 766 764 759 755 752 749 745 741 739 736 734 731
805 801 781 761 764 764 765 777 761 763 766 770 772 777 776 774 775 776 776 778 776 775 775 775 774 773 771 769 769 768 767 764 763 760 757 753 749 746 742 741 738 736 734 733
797 805 780 764 765 766 771 769 763 765 766 771 774 773 772 773 774 775 776 775 775 775 775 775 774 773 772 770 767 766 764 762 760 757 754 750 748 747 744 741 737 734 730 726
798 794 794 766 769 771 766 763 762 764 766 769 770 772 774 774 775 776 775 775 775 774 774 773 772 771 768 765 763 761 759 756 754 751 749 747 744 741 738 735 732 729 726 722
785 777 763 764 759 759 762 762 762 764 766 768 772 774 774 776 777 777 777 776 776 775 774 773 773 772 770 768 766 764 761 758 754 749 745 742 740 737 734 732 728 725 722 719
770 761 763 759 758 759 760 761 762 764 767 769 771 774 775 778 779 779 778 778 777 776 775 773 772 769 767 765 763 760 757 754 750 746 742 739 736 734 730 727 725 722 719 715
774 762 759 755 756 756 759 761 764 766 768 770 772 774 776 777 778 778 778 777 775 774 773 771 769 767 765 762 759 756 752 749 745 741 737 733 730 728 727 726 724 719 715 713
752 751 750 750 749 752 758 761 763 765 769 770 772 774 775 777 777 777 776 775 774 772 770 768 767 764 762 760 756 753 749 745 742 737 733 729 725 722 722 720 718 717 714 711
744 746 747 747 750 752 755 758 762 765 767 770 772 774 775 777 777 777 777 775 773 771 769 767 765 763 760 758 754 751 747 743 739 734 729 725 721 718 716 713 714 712 711 708
740 747 751 751 750 751 754 758 762 766 769 771 773 774 775 776 775 775 774 773 771 769 767 765 763 760 758 755 751 747 744 740 736 730 726 721 717 714 713 712 709 706 705 704
738 738 738 742 750 754 756 759 764 767 769 772 774 775 775 775 775 775 773 771 769 767 765 763 760 757 755 752 748 745 741 737 732 727 722 717 713 710 707 705 704 703 699 696
739 741 743 744 749 754 758 761 765 768 769 771 772 774 775 774 774 774 772 769 766 765 763 760 758 755 751 748 744 741 736 732 728 723 718 713 709 706 701 700 699 697 695 693
743 747 747 750 750 753 756 760 762 765 768 770 772 772 773 773 773 772 770 767 764 762 760 758 755 750 747 744 740 736 732 728 724 719 714 709 705 702 699 697 694 692 689 688
728 731 736 740 748 753 757 759 762 764 766 768 770 770 771 771 770 768 765 763 760 758 757 754 751 746 743 739 735 732 727 723 719 715 710 705 701 698 695 693 689 686 683 681
731 732 735 739 744 748 752 755 758 760 762 764 766 767 768 768 766 764 762 760 757 755 752 750 746 742 738 734 731 727 722 718 714 710 706 701 697 693 690 688 684 681 678 676
737 739 740 743 746 747 751 753 756 757 759 761 763 764 765 764 763 761 759 757 756 754 750 746 742 738 735 730 726 723 719 715 711 706 702 697 693 688 685 683 680 677 675 672
740 742 745 748 750 752 753 754 755 756 758 758 760 760 761 761 760 758 756 754 752 750 747 743 739 735 731 727 722 719 715 712 708 704 699 694 689 686 682 679 676 673 670 667
741 744 747 748 750 753 754 756 756 757 757 757 757 758 758 758 757 754 752 752 749 747 743 739 736 732 728 723 720 716 712 709 705 701 696 691 686 682 678 675 672 669 666 663
740 741 743 747 749 752 753 754 755 756 756 755 754 755 756 755 754 751 749 748 746 743 741 736 733 729 724 720 717 713 709 705 702 698 693 689 684 680 676 672 669 666 663 659
738 742 744 745 747 750 752 752 754 753 755 755 754 754 754 752 750 748 747 745 742 740 738 734 730 726 722 718 714 710 706 703 699 694 690 686 682 678 673 670 666 662 659 655
734 736 740 744 745 746 747 750 750 752 752 752 753 753 751 750 749 745 743 742 739 736 733 730 726 722 718 715 711 708 704 700 696 692 688 684 679 675 671 667 663 659 655 652
733 733 733 737 740 742 743 746 745 749 749 749 749 751 750 747 745 742 740 739 737 733 730 726 722 719 716 713 709 705 701 698 694 690 686 682 678 673 669 664 660 656 652 648
734 734 734 734 735 738 739 742 740 742 746 747 747 748 747 745 741 739 738 737 735 730 727 724 720 716 713 710 706 702 699 696 693 689 685 680 676 671 667 662 658 654 650 646
Wind_Speed
6 8 5 3 5 8 6 2 3 5 4 5 5 5 4 4 4 5 4 5 4 3 3 8 10 11 14 15 17 18 18 18 19 18 17 17 17 18 18 18 18 17 15 13
4 3 4 4 5 5 3 4 4 3 2 3 2 3 4 6 5 4 4 4 3 4 5 8 10 11 13 16 18 17 16 17 18 19 19 20 20 18 18 19 18 18 18 18
4 4 4 4 3 2 1 0 1 3 4 4 3 6 6 6 5 4 3 1 2 3 4 7 9 10 14 15 14 16 16 15 20 22 22 22 21 22 21 19 18 17 18 20
4 4 2 4 2 2 2 1 1 3 2 2 3 2 2 2 6 5 3 2 2 3 6 8 10 10 10 13 15 16 16 15 17 19 19 20 22 23 23 22 22 21 21 20
1 1 5 2 4 4 4 5 3 4 3 4 5 3 2 2 4 5 4 2 2 4 7 10 10 8 10 13 12 13 14 14 15 17 21 23 24 24 23 24 25 25 22 21
1 1 5 3 3 3 3 5 5 5 5 5 4 1 4 6 4 4 2 2 4 6 7 7 10 10 12 14 13 15 16 17 17 18 19 21 21 23 23 24 25 22 20 19
3 3 6 4 4 3 2 5 5 6 5 5 4 4 2 3 1 2 4 8 10 10 11 12 13 13 16 17 17 22 23 23 23 20 19 20 20 18 20 19 21 22 23 22
1 2 6 5 4 5 4 1 5 4 4 5 3 3 2 1 1 3 6 9 10 11 12 13 15 18 21 24 26 27 29 29 30 29 28 26 24 24 24 20 19 21 23 25
7 5 4 6 4 3 4 5 4 4 3 5 5 4 3 2 2 4 6 7 8 9 11 15 16 15 16 19 20 21 23 25 29 34 35 32 27 23 22 18 19 21 21 20
2 3 6 6 3 4 6 4 3 3 4 5 4 4 3 2 2 3 6 7 8 8 12 16 18 17 17 19 20 21 23 26 28 29 31 30 28 24 22 21 20 20 18 16
6 7 7 7 7 6 5 6 5 4 4 4 5 3 2 0 2 4 6 9 11 12 15 18 18 18 19 23 25 23 26 29 29 27 27 30 30 24 18 17 18 22 21 20
7 8 5 5 3 7 8 6 7 6 5 4 5 5 3 1 3 5 8 10 13 15 16 18 16 20 22 22 21 24 24 22 23 25 24 26 27 26 20 18 17 14 18 20
8 5 6 3 5 5 7 7 6 6 6 6 4 3 1 0 4 7 10 12 13 14 14 16 17 17 18 22 21 22 23 23 23 24 23 22 22 22 18 23 14 16 16 18
5 7 2 4 5 7 7 8 10 9 7 5 4 5 3 3 5 9 11 12 13 14 14 15 17 17 19 20 20 21 23 22 22 23 23 22 21 24 18 15 17 21 19 18
10 5 4 7 7 7 8 8 7 6 5 6 6 5 4 4 5 8 9 10 12 12 15 16 16 16 17 18 19 22 22 21 21 23 23 23 21 20 21 16 15 21 24 23
5 5 7 8 9 8 7 7 7 6 4 4 4 3 3 3 4 5 7 10 11 11 14 14 14 17 18 17 20 21 19 20 22 22 21 20 20 21 19 13 15 17 18 18
5 3 4 3 7 7 7 5 6 5 5 5 3 2 2 2 2 6 9 10 11 11 11 11 17 18 18 21 22 18 19 19 22 21 21 22 19 16 16 17 16 17 18 19
5 4 7 8 8 8 7 7 8 8 5 5 3 3 2 2 3 8 11 14 13 12 12 15 18 19 23 23 20 19 20 20 21 20 21 19 18 17 18 17 18 18 19 21
3 8 8 11 14 10 9 10 11 10 8 5 4 3 1 1 5 8 11 12 12 14 18 20 19 22 24 21 20 22 25 22 21 22 22 22 20 20 19 18 19 19 19 20
7 9 14 13 16 14 10 11 10 9 6 5 4 3 0 3 6 8 10 11 11 13 18 20 20 24 22 23 20 24 20 19 20 21 21 21 19 19 16 15 14 15 18 18
6 8 9 9 9 9 9 9 9 8 6 5 4 2 1 4 6 9 9 7 12 17 18 19 20 21 21 22 20 24 22 18 19 20 20 19 17 17 16 15 16 16 17 17
7 7 9 11 9 7 5 6 5 6 6 5 3 2 2 4 7 10 10 11 17 18 19 19 22 20 22 22 21 22 19 19 21 20 19 19 18 18 16 16 14 17 18 20
11 12 12 11 9 7 7 6 6 6 6 4 3 2 4 6 7 8 5 11 17 18 19 21 20 20 20 20 21 19 21 22 20 20 19 19 18 19 19 17 17 17 19 20
13 12 11 10 9 9 6 7 7 4 6 3 3 3 4 6 10 6 12 15 17 16 18 19 19 19 18 19 19 18 22 22 21 21 19 19 19 20 19 19 19 19 21 20
17 16 14 13 10 8 8 9 6 5 6 4 5 5 4 4 6 11 11 15 15 15 17 20 18 16 17 18 17 17 21 21 20 20 22 20 22 21 21 21 21 21 21 21
15 14 16 17 13 12 12 13 9 8 6 6 6 7 6 7 8 9 12 13 14 13 17 19 18 18 16 16 16 19 20 20 20 20 20 22 21 20 20 20 20 19 19 20
17 12 13 12 12 14 14 15 12 9 8 8 8 8 7 8 8 9 10 12 14 15 16 17 17 15 16 16 17 17 19 21 18 19 20 20 19 20 21 21 20 19 18 18
Wind_Direction
251 253 265 264 311 336 28 286 122 209 206 239 214 190 189 170 144 113 93 78 63 61 27 29 35 34 24 22 19 22 21 22 16 12 12 10 5 0 357 353 348 343 337 331
286 274 329 275 321 334 3 31 50 129 257 232 181 121 155 179 166 145 127 97 56 37 23 21 15 13 14 14 12 10 11 10 6 3 360 359 359 359 359 359 350 345 339 334
269 343 328 328 237 304 290 294 231 226 239 149 163 190 191 194 189 181 182 133 60 29 7 2 7 6 6 7 5 6 4 357 353 350 352 353 351 352 348 345 344 345 340 339
257 360 14 245 244 223 192 313 7 98 113 166 169 86 74 165 172 172 188 203 330 339 349 355 354 353 353 356 355 351 348 344 344 343 339 340 339 340 342 342 340 336 336 335
120 224 283 214 206 196 182 268 204 178 164 129 140 138 259 183 166 186 197 218 274 330 342 341 342 337 338 341 339 339 337 327 326 331 331 332 332 329 332 335 334 333 330 328
131 172 235 242 185 159 112 277 207 187 185 173 144 208 250 189 174 167 146 311 337 341 334 330 338 329 325 329 328 331 332 325 317 318 323 323 325 323 324 324 325 329 325 323
220 252 287 244 158 141 152 248 166 170 189 167 186 207 310 127 92 31 353 354 351 340 333 333 336 334 325 328 322 332 330 324 318 315 315 321 317 311 310 309 315 318 322 323
136 235 291 150 86 176 215 158 161 162 180 185 200 150 165 211 315 331 335 338 334 327 322 328 332 331 326 323 329 330 327 323 320 319 317 313 313 312 312 310 313 312 315 318
184 218 239 210 207 214 176 164 197 168 166 169 161 191 189 236 321 338 340 330 324 312 313 316 324 322 309 305 312 314 312 309 308 310 310 308 304 302 301 298 304 306 308 308
348 250 231 232 224 195 187 180 147 141 153 156 162 151 133 67 5 345 334 328 321 305 301 307 318 315 308 312 316 315 315 315 313 309 305 302 299 293 293 295 297 299 297 296
256 280 281 255 217 190 168 142 130 127 133 136 126 110 106 42 326 312 321 323 319 311 308 308 313 311 315 318 319 318 323 321 315 308 303 302 298 291 285 281 290 294 290 294
249 215 204 244 218 160 156 169 164 144 130 128 133 156 153 247 293 312 319 326 320 315 312 312 315 316 323 332 334 328 317 311 308 307 302 295 291 289 288 288 296 289 295 292
240 203 194 153 155 149 154 160 153 139 138 142 128 133 110 318 341 343 341 341 336 329 326 326 331 333 335 332 331 325 317 312 307 304 301 296 287 286 288 303 294 291 299 293
179 120 116 203 194 164 138 138 124 115 112 114 108 84 63 24 354 352 343 337 339 336 337 337 334 331 331 330 330 328 323 313 307 301 298 297 288 284 276 283 300 307 306 305
190 197 176 128 117 120 122 126 121 128 132 112 85 85 40 10 351 339 339 349 346 343 338 336 332 333 335 331 330 326 314 306 306 303 297 297 291 280 268 258 277 287 296 304
111 121 131 136 141 141 137 145 137 145 134 125 105 65 23 351 333 335 348 353 352 332 336 337 332 329 335 334 328 319 315 315 318 310 306 300 297 287 260 257 272 271 283 292
116 147 145 144 158 154 160 140 137 140 132 120 108 81 15 352 334 340 349 350 346 335 334 335 330 335 335 330 328 317 316 314 319 321 317 302 294 284 275 280 275 271 273 287
138 149 156 159 152 139 132 131 134 137 136 136 126 112 94 40 325 338 345 344 345 340 343 338 335 331 330 333 329 320 318 312 314 310 311 314 304 289 289 286 280 274 275 283
110 125 125 129 142 139 141 142 142 142 140 138 136 135 123 14 349 346 345 343 340 330 331 334 334 331 332 332 326 319 312 311 312 307 302 302 298 291 285 286 284 278 278 285
90 91 108 116 135 139 140 151 151 150 156 164 161 154 67 355 352 349 345 330 325 322 324 330 329 331 329 329 323 319 327 319 316 313 311 308 302 295 293 306 309 301 292 289
110 118 121 126 125 138 146 154 160 160 172 168 168 167 245 330 345 348 345 320 326 333 327 325 330 326 326 318 325 338 336 323 317 316 314 312 312 308 301 300 296 297 295 294
146 142 148 152 150 145 153 166 163 179 178 175 178 200 288 317 336 341 340 311 324 331 321 325 331 324 322 326 333 338 334 326 321 318 318 314 309 303 300 302 301 304 300 299
163 164 165 169 169 174 176 180 194 200 195 193 190 240 282 304 323 327 319 331 320 326 323 326 329 325 327 326 331 335 336 329 322 321 319 322 319 317 312 311 311 308 306 303
171 179 179 169 165 166 175 202 215 196 212 220 253 266 281 311 318 345 331 323 325 325 321 325 329 328 329 326 332 331 334 330 321 323 323 325 322 321 321 317 312 310 311 310
184 180 178 181 184 200 198 207 193 206 212 232 264 272 283 303 304 320 327 325 326 325 327 331 333 334 337 344 343 340 337 331 324 329 330 327 330 326 324 323 320 317 313 313
184 187 186 198 204 206 199 203 192 214 229 240 266 272 286 310 318 323 329 331 329 331 333 338 339 335 337 341 336 339 341 332 332 329 330 331 333 332 332 331 328 326 325 325
208 202 189 186 198 202 200 212 192 206 225 244 266 281 294 310 322 328 329 331 334 340 338 338 341 343 338 338 334 333 336 336 332 331 330 336 337 337 335 334 334 334 331 329